Location: Ferchesar
(52.6477°N, 12.4298°E)
Time: 09:33:22
(UTC+01:00)

Tiros 1 despin weight - Pass Details

Date: 09 December 2021
Orbit: 592 x 641 km, 48.2° (Epoch: 19 January)

Event Time Altitude Azimuth Distance (km) Brightness Sun altitude
Rises 12:39:50 0° 241° (WSW) 2,845 ? 14.1°
Reaches altitude 10° 12:42:14 10° 233° (SW) 1,936 ? 14.0°
Maximum altitude 12:46:21 39° 165° (SSE) 904 ? 13.9°
Drops below altitude 10° 12:50:27 10° 97° (E) 1,925 ? 13.8°
Sets 12:52:50 0° 89° (E) 2,826 ? 13.7°
